Vorticity
4 -3 -7 5 10 10 6 7 7 7 8 6 12 8 5 9 9 4 3 2 3 4 3 3 3 4 5 5 5 4 4 4 5 5 3 1 2 2
3 5 4 13 9 8 8 6 3 3 6 8 4 7 8 2 2 2 5 4 3 4 4 4 4 5 6 6 7 7 8 8 8 8 7 5 3 2
-6 19 8 5 9 9 6 4 4 9 8 5 9 5 2 2 5 3 3 3 4 4 4 6 10 11 13 13 13 14 15 17 19 18 16 15 14 13
19 5 9 14 11 6 4 6 9 5 10 8 1 1 5 4 4 4 3 3 5 5 8 12 14 17 18 19 21 21 21 20 19 18 19 16 19 18
8 10 13 10 6 3 9 7 6 10 3 0 5 6 5 5 3 3 4 6 9 12 15 20 25 25 25 24 24 25 26 24 20 25 21 21 21 19
8 12 7 4 6 10 4 12 4 0 3 6 4 4 3 2 2 5 5 9 17 25 26 24 26 23 29 38 43 39 39 36 38 39 38 41 39 34
9 6 4 9 7 7 9 1 1 6 6 4 1 0 1 2 3 5 9 19 30 25 24 23 31 31 22 17 18 19 21 23 25 26 27 26 26 32
5 6 10 5 9 3 2 5 6 5 3 2 3 4 4 6 10 14 27 29 30 26 32 37 20 23 25 23 22 20 18 18 18 20 20 23 26 29
9 8 9 9 2 2 5 4 4 3 2 5 5 5 9 13 20 27 29 28 32 31 20 23 25 23 21 22 21 17 13 14 13 12 14 17 17 21
6 8 4 2 4 2 5 4 2 4 5 4 6 12 18 23 25 26 26 34 25 17 20 21 15 17 19 17 17 16 18 17 17 18 15 13 15 16
6 4 4 3 1 4 2 2 3 5 6 8 14 20 24 28 25 25 29 28 17 15 12 13 14 17 18 15 14 18 25 25 24 24 27 26 24 23
4 4 2 0 6 4 4 5 6 7 7 13 21 26 25 25 24 27 28 16 12 17 23 21 17 17 21 19 18 20 24 23 27 27 22 19 18 19
2 0 2 8 4 5 7 8 8 11 15 24 29 21 24 27 24 28 16 11 21 23 3 5 8 8 9 10 15 17 21 26 28 11 8 4 8 21
-2 5 7 4 6 7 7 8 10 17 25 27 16 19 31 27 19 19 13 18 11 3 0 10 8 10 7 7 7 8 14 17 16 10 2 8 11 1
9 4 5 6 7 5 11 13 19 24 23 11 19 32 27 23 16 18 15 15 4 8 9 9 10 9 9 7 6 6 7 6 13 8 2 5 11 7
3 5 6 6 7 11 12 21 19 16 14 17 28 28 31 11 19 16 18 5 8 10 11 11 10 12 11 9 8 8 6 10 11 13 7 3 4 10
7 6 5 6 10 16 19 15 16 17 16 20 33 27 16 10 21 17 8 3 10 11 10 12 10 11 11 12 11 8 10 7 6 10 15 16 8 4
6 4 8 12 18 15 14 15 21 16 14 28 24 23 8 18 20 13 2 11 11 9 13 16 12 9 6 5 7 14 15 11 12 12 16 21 15 10
4 6 13 14 13 14 17 22 19 13 16 25 14 23 10 17 17 6 9 12 10 11 14 14 11 9 11 11 6 3 10 10 10 10 10 9 11 11
7 12 13 14 15 16 20 23 13 17 16 17 9 21 11 17 14 7 12 10 9 15 11 9 8 8 8 8 9 6 6 8 8 8 8 8 8 11
11 15 13 15 15 21 27 15 17 15 14 18 8 19 11 16 13 9 10 7 10 15 10 10 8 8 8 9 10 9 10 11 13 12 12 12 9 7
14 13 14 16 21 27 20 12 20 11 15 25 9 16 12 14 14 10 9 7 8 14 9 8 7 8 8 9 9 12 13 12 12 12 12 14 15 14
11 15 15 20 30 23 8 17 16 5 30 20 9 18 11 12 14 15 11 6 9 14 11 7 7 8 10 11 12 13 13 13 13 11 9 13 14 14
Height
5747 5744 5743 5741 5737 5734 5731 5728 5725 5723 5719 5712 5707 5701 5695 5690 5684 5679 5672 5666 5660 5652 5645 5638 5631 5625 5618 5613 5608 5604 5601 5597 5595 5593 5590 5588 5587 5586
5738 5737 5735 5732 5727 5724 5720 5717 5713 5709 5706 5699 5694 5689 5683 5676 5669 5662 5655 5647 5638 5630 5621 5613 5604 5596 5589 5581 5574 5568 5563 5560 5557 5555 5554 5554 5553 5553
5729 5727 5725 5722 5717 5713 5710 5705 5701 5695 5691 5686 5679 5672 5665 5658 5651 5644 5635 5626 5616 5604 5593 5582 5570 5560 5552 5543 5536 5528 5521 5515 5514 5513 5513 5515 5517 5517
5720 5718 5716 5712 5707 5702 5698 5693 5687 5682 5677 5671 5663 5655 5647 5638 5631 5621 5612 5601 5590 5577 5565 5552 5539 5525 5511 5501 5492 5484 5479 5475 5473 5472 5473 5477 5477 5482
5712 5709 5705 5701 5696 5691 5686 5680 5675 5669 5662 5655 5647 5637 5627 5617 5609 5598 5586 5573 5560 5545 5529 5514 5500 5485 5472 5461 5454 5447 5443 5438 5439 5436 5436 5439 5442 5446
5702 5699 5695 5689 5684 5679 5673 5667 5662 5654 5646 5638 5629 5618 5607 5596 5584 5572 5562 5544 5529 5509 5493 5477 5464 5451 5440 5431 5423 5418 5414 5410 5407 5404 5402 5403 5405 5410
5692 5688 5684 5678 5672 5667 5661 5655 5647 5638 5629 5620 5609 5598 5586 5573 5560 5547 5532 5516 5499 5477 5464 5451 5437 5427 5418 5411 5403 5396 5392 5387 5386 5383 5381 5380 5379 5381
5682 5678 5673 5666 5661 5655 5648 5640 5630 5620 5610 5600 5588 5575 5561 5548 5535 5518 5500 5484 5473 5453 5439 5433 5417 5412 5402 5395 5387 5380 5374 5371 5368 5366 5364 5362 5362 5361
5671 5666 5660 5654 5649 5642 5633 5623 5612 5602 5591 5578 5567 5550 5538 5519 5508 5493 5474 5458 5444 5431 5422 5416 5403 5396 5388 5382 5375 5368 5361 5357 5355 5353 5351 5348 5346 5346
5660 5654 5648 5642 5635 5627 5617 5607 5596 5583 5572 5559 5543 5529 5511 5494 5478 5465 5453 5442 5428 5416 5409 5404 5393 5386 5380 5372 5365 5358 5352 5347 5344 5341 5338 5335 5333 5332
5649 5643 5636 5627 5619 5611 5602 5591 5580 5567 5553 5538 5522 5506 5490 5473 5456 5443 5432 5425 5419 5408 5401 5394 5385 5379 5372 5365 5357 5350 5344 5338 5334 5331 5328 5324 5321 5319
5638 5630 5622 5613 5603 5594 5584 5574 5562 5548 5535 5521 5504 5486 5468 5453 5437 5427 5420 5415 5409 5403 5393 5388 5380 5374 5367 5360 5352 5345 5338 5331 5327 5324 5321 5319 5316 5313
5624 5616 5607 5598 5588 5577 5565 5553 5542 5530 5515 5498 5482 5466 5450 5435 5425 5417 5412 5407 5402 5396 5389 5384 5377 5369 5363 5357 5348 5341 5334 5328 5323 5321 5319 5316 5313 5308
5609 5601 5592 5582 5571 5559 5547 5535 5522 5508 5493 5478 5462 5446 5434 5423 5415 5410 5405 5400 5395 5392 5386 5379 5373 5366 5360 5353 5346 5339 5332 5328 5323 5320 5317 5313 5309 5304
5595 5587 5577 5567 5556 5544 5531 5517 5504 5489 5473 5457 5443 5430 5421 5413 5408 5403 5399 5395 5391 5385 5381 5374 5368 5362 5356 5350 5344 5338 5333 5326 5321 5317 5314 5309 5306 5302
5582 5573 5562 5551 5540 5528 5515 5500 5483 5468 5454 5441 5430 5420 5412 5406 5400 5397 5393 5389 5385 5379 5374 5369 5363 5358 5353 5346 5340 5336 5330 5325 5321 5315 5311 5306 5302 5298
5568 5557 5546 5536 5525 5511 5495 5479 5465 5452 5441 5430 5421 5413 5406 5400 5394 5390 5387 5384 5379 5374 5368 5362 5356 5352 5347 5343 5338 5332 5327 5322 5317 5312 5308 5303 5298 5294
5552 5543 5533 5520 5505 5490 5476 5463 5451 5441 5431 5422 5413 5406 5400 5394 5389 5385 5381 5377 5372 5367 5363 5358 5353 5348 5342 5336 5331 5329 5324 5318 5313 5308 5303 5299 5294 5288
5541 5529 5515 5501 5487 5474 5462 5451 5441 5432 5423 5414 5407 5400 5394 5389 5384 5380 5375 5371 5366 5361 5356 5353 5349 5344 5340 5335 5327 5321 5319 5314 5309 5303 5298 5294 5290 5285
5523 5509 5496 5484 5472 5461 5450 5440 5431 5422 5414 5406 5399 5393 5388 5383 5378 5374 5369 5365 5361 5356 5351 5347 5343 5339 5335 5331 5326 5318 5312 5309 5304 5299 5294 5289 5284 5281
5505 5494 5481 5470 5458 5448 5438 5429 5421 5412 5405 5399 5392 5386 5381 5376 5372 5368 5363 5359 5354 5350 5347 5343 5338 5334 5330 5326 5320 5315 5308 5303 5298 5294 5289 5285 5280 5275
5489 5479 5467 5456 5445 5435 5427 5420 5411 5403 5396 5390 5384 5379 5374 5370 5365 5361 5357 5354 5349 5345 5341 5337 5333 5329 5324 5320 5315 5309 5304 5297 5291 5287 5282 5279 5275 5271
5474 5464 5453 5442 5432 5424 5417 5410 5402 5395 5387 5382 5377 5372 5367 5363 5358 5354 5351 5347 5343 5339 5336 5332 5327 5323 5319 5314 5308 5303 5298 5292 5287 5281 5273 5270 5267 5263